Location: Gilevgi
(36.8751°N, 30.0581°E)
Time: 07:41:44
(UTC+00:00)

Okean 1-7 Rocket - Pass Details

Date: 19 March 2026
Orbit: 609 x 643 km, 82.5° (Epoch: 18 April)

Event Time Altitude Azimuth Distance (km) Brightness Sun altitude
Rises 03:16:11 0° 351° (N) 2,913 7.0 -10.6°
Reaches altitude 10° 03:18:26 10° 350° (N) 1,997 6.1 -10.2°
Maximum altitude 03:22:50 76° 265° (W) 640 3.5 -9.3°
Drops below altitude 10° 03:27:11 10° 180° (S) 1,964 6.1 -8.4°
Sets 03:29:22 0° 178° (S) 2,860 6.9 -8.0°
